Wind_Speed
37 39 41 47 46 46 43 41 44 43 40 37 33 33 34 35 36 35 36 36 33 30
40 40 42 41 42 46 47 45 45 44 43 39 35 38 36 34 34 36 37 30 30 29
42 42 42 42 42 40 37 38 39 40 40 38 38 38 38 33 29 35 41 38 27 25
41 41 40 40 39 39 38 37 35 35 36 36 37 40 40 34 36 33 31 29 24 23
37 39 37 40 38 37 39 37 34 35 38 41 40 42 34 38 35 32 29 29 26 23
40 39 39 46 41 44 41 37 33 35 34 34 26 20 28 33 32 30 34 28 28 27
45 42 46 42 42 45 43 40 38 42 42 40 31 30 35 32 32 30 33 30 26 27
44 43 46 47 47 46 40 33 42 43 39 39 35 34 32 30 32 31 33 29 25 25
42 45 46 48 48 49 48 43 38 41 42 38 34 33 30 29 31 27 29 29 27 25
32 36 42 45 46 46 44 39 41 39 40 40 37 32 25 24 27 27 27 27 25 24
31 34 36 36 37 39 42 41 42 38 37 35 28 26 28 29 28 25 25 24 23 22
30 31 32 33 34 37 36 38 34 32 29 29 28 31 30 27 25 24 23 22 21 20
30 31 30 32 34 35 32 31 27 29 29 28 27 24 23 22 22 22 21 19 19 19
22 20 21 19 20 24 28 29 29 28 26 23 21 22 22 21 20 18 18 19 18 17
Wind_Direction
215 216 218 219 224 226 232 237 232 236 239 247 262 271 272 274 273 271 272 275 278 270
216 218 219 223 229 235 239 240 236 237 240 250 262 266 270 275 267 273 262 279 285 263
221 222 226 231 234 234 235 234 236 239 248 258 261 264 268 272 266 253 265 272 266 263
226 227 228 230 233 234 235 238 243 249 255 261 267 263 264 270 267 271 263 253 258 254
228 227 231 232 232 237 240 241 246 258 266 266 269 249 244 261 265 268 258 246 246 251
231 228 238 235 236 238 241 247 254 262 246 267 264 255 237 257 267 267 256 241 250 254
236 235 238 245 245 247 250 244 246 253 258 260 252 249 251 260 269 264 247 242 240 249
241 242 242 245 249 254 259 252 246 247 258 259 250 263 267 258 260 253 237 236 234 233
241 242 246 248 250 253 257 261 251 246 254 245 258 269 269 257 245 233 235 232 229 230
243 244 243 246 248 251 254 254 249 242 241 255 265 267 251 237 228 229 233 226 228 232
241 242 244 246 247 251 249 245 247 250 257 254 242 229 226 232 234 224 221 224 227 229
237 242 245 247 247 240 242 250 257 251 239 227 219 224 228 227 221 214 215 218 225 232
236 240 245 248 247 247 244 239 236 226 215 212 213 208 215 216 214 212 216 224 233 242
237 242 240 243 241 236 231 222 208 203 201 199 202 199 199 200 212 221 227 231 238 247
Height
1485 1491 1495 1500 1504 1507 1509 1511 1516 1521 1524 1527 1528 1530 1532 1533 1534 1534 1534 1534 1534 1534
1482 1486 1489 1493 1497 1500 1503 1506 1510 1515 1518 1520 1521 1521 1524 1525 1526 1524 1525 1527 1526 1526
1475 1480 1484 1489 1491 1493 1496 1500 1505 1508 1510 1512 1512 1512 1514 1517 1517 1519 1520 1520 1521 1520
1468 1473 1478 1482 1484 1486 1490 1494 1498 1500 1501 1501 1500 1500 1504 1507 1510 1511 1511 1513 1515 1515
1459 1464 1467 1467 1473 1478 1480 1486 1490 1493 1493 1494 1492 1488 1493 1498 1503 1503 1505 1506 1507 1509
1446 1451 1453 1457 1465 1468 1473 1477 1482 1483 1483 1485 1486 1486 1489 1493 1495 1497 1497 1498 1500 1503
1439 1444 1447 1452 1456 1459 1464 1469 1471 1472 1475 1477 1480 1483 1485 1487 1489 1490 1490 1492 1493 1496
1432 1438 1442 1446 1449 1452 1455 1459 1462 1465 1468 1470 1473 1475 1476 1479 1480 1481 1484 1485 1487 1489
1427 1431 1434 1437 1441 1445 1448 1451 1454 1458 1460 1461 1465 1467 1468 1471 1472 1475 1478 1478 1481 1483
1419 1422 1427 1430 1433 1436 1441 1443 1446 1450 1452 1455 1457 1459 1462 1464 1467 1468 1470 1474 1475 1479
1411 1415 1418 1422 1426 1430 1433 1437 1440 1443 1445 1447 1448 1451 1455 1459 1462 1463 1466 1469 1471 1474
1405 1409 1412 1415 1419 1422 1426 1429 1432 1435 1437 1439 1441 1444 1447 1451 1455 1458 1462 1464 1466 1470
1400 1404 1408 1412 1414 1417 1420 1422 1425 1428 1432 1434 1436 1439 1444 1449 1452 1456 1458 1461 1463 1466
1398 1401 1404 1407 1409 1411 1414 1416 1419 1423 1426 1429 1433 1437 1442 1447 1450 1452 1454 1457 1460 1462